Regional Weather Roundup
Issued by NWS

Home | Current Version | Previous Version | Text Only | Print | Product List | Glossary On
Versions: 1 2 3 4 5 6 7 8 9 10 11 12 13 14 15 16 17 18 19 20 21 22 23 24 25 26 27 28 29 30 31 32 33 34 35 36 37 38 39 40 41 42 43 44 45 46 47 48 49 50
000
ASUS45 KBOI 280910
RWRID
WEATHER ROUNDUP FOR IDAHO
NATIONAL WEATHER SERVICE BOISE ID
200 AM MST FRI NOV 28 2014

NOTE: "FAIR" INDICATES FEW OR NO CLOUDS BELOW 12000 FEET
WITH NO SIGNIFICANT WEATHER AND/OR OBSTRUCTIONS TO VISIBILITY

IDZ012-014-281000-
SOUTHWEST IDAHO


CITY           SKY/WX    TMP DP  RH WIND       PRES   REMARKS
BOISE          MOCLDY    41  40  96 SE3       29.94F
CALDWELL       NOT AVBL
MOUNTAIN HOME  CLOUDY    39  39 100 NE5       29.95F
$$

IDZ016-017-281000-
SOUTHCENTRAL IDAHO


CITY           SKY/WX    TMP DP  RH WIND       PRES   REMARKS
BURLEY         CLOUDY    52  25  35 SW12      29.98F
JEROME         CLOUDY    47  29  49 SE5       29.98F
TWIN FALLS     CLOUDY    47  30  51 SW12      29.98S
$$

IDZ019>023-281000-
SOUTHEAST IDAHO


CITY           SKY/WX    TMP DP  RH WIND       PRES   REMARKS
IDAHO FALLS    CLOUDY    43  28  55 SW13      29.99F
POCATELLO      CLEAR     42  28  57 NW7       30.00F
REXBURG        CLOUDY    47  26  44 S13       29.98F
$$

IDZ006-010-011-018-031-032-281000-
CENTRAL IDAHO MOUNTAINS


CITY           SKY/WX    TMP DP  RH WIND       PRES   REMARKS
MCCALL         LGT RAIN  36  35  96 NE3       29.94F FOG
HAILEY         MOCLDY    36  32  87 NW8       30.03F WCI  29
STANLEY          N/A     36  27  69 N6        30.00F WCI  31
SALMON         CLOUDY    46  34  61 NE3       29.86F
CHALLIS        MOCLDY    39  31  72 S8        29.94F WCI  33
$$

IDZ002-004-006-007-026-281000-
NORTHERN IDAHO


CITY           SKY/WX    TMP DP  RH WIND       PRES   REMARKS
LEWISTON       CLOUDY    56  43  61 S13       29.75F
LOWELL           N/A     42  40  92 CALM      29.86F
COEUR D`ALENE  CLOUDY    50  41  71 W7        29.69F
MULLAN PASS    RAIN      35  35 100 SW15G28   29.71F FOG     WCI  25
$$



USA.gov is the U.S. government's official web portal to all federal, state and local government web resources and services.